Location: Bakhuizen
(52.8696°N, 5.4575°E)
Time: 08:26:37
(UTC+00:00)

SL-8 Rocket - Pass Details

Date: 11 May 2021
Orbit: 957 x 990 km, 82.9° (Epoch: 20 June)

Event Time Altitude Azimuth Distance (km) Brightness Sun altitude
Rises 22:29:06 0° 348° (NNW) 3,718 8.8 -17.6°
Reaches altitude 10° 22:31:38 10° 347° (NNW) 2,766 7.7 -17.7°
Maximum altitude 22:37:58 76° 264° (W) 1,025 4.1 -18.0°
Enters shadow 22:41:31 28° 183° (S) 1,770 4.8 -18.1°
